Hyannis, MA

7:56 AM EST on January 18, 2018 (GMT -0500)
Barnstable Municipal-Boardman-Polando Field

Weather History for KHYA - March, 2014

Change the Weather History Date:

Wednesday, March 26, 2014

  Actual Average Record
Temperature  
Mean Temperature 30 °F -  
Max Temperature 34 °F 47 °F 67 °F (1987)
Min Temperature 27 °F 32 °F 9 °F (1960)
Degree Days  
Heating Degree Days 34    
Moisture  
Dew Point 19 °F    
Average Humidity 64    
Maximum Humidity 96    
Minimum Humidity 34    
Precipitation  
Precipitation 0.26 in - - ()
Sea Level Pressure  
Sea Level Pressure 29.54 in    
Wind  
Wind Speed 24 mph (North)    
Max Wind Speed 38 mph    
Max Gust Speed 64 mph    
Visibility 4 miles    
Events Fog , Rain , Snow    
Averages and records for this station are not official NWS values.
T = Trace of Precipitation, MM = Missing Value Source: NWS Daily Summary

Daily Weather History Graph

Daily Weather History Graph

Search for Another Location

Airport or City:

Trip Planner

Search our weather history database for the weather conditions in past years. The results will help you decide how hot, cold, wet, or windy it might be!

Date:

Astronomy

Mar. 26, 2014 Rise Set
Actual Time 6:34 AM EDT 6:59 PM EDT
Civil Twilight 6:06 AM EDT 7:27 PM EDT
Nautical Twilight 5:33 AM EDT 8:00 PM EDT
Astronomical Twilight 5:00 AM EDT 8:34 PM EDT
Moon 3:44 AM EDT (3/26) 2:31 PM EDT (3/26)
Length of Visible Light 13h 21m
Length of Day
12h 25m
Waning Crescent, 22% of the Moon is Illuminated
Mar 26
Waning Crescent
Mar 30
New
Apr 7
First Quarter
Apr 15
Full
Apr 22
Last Quarter

Hourly Weather History & Observations

Time (EDT) Temp. Windchill Dew Point Humidity Pressure Visibility Wind Dir Wind Speed Gust Speed Precip Events Conditions
12:56 AM 34.0 °F 24.6 °F 21.9 °F 61% 29.79 in 10.0 mi NE 13.8 mph - N/A   Overcast
1:56 AM 34.0 °F 24.6 °F 21.9 °F 61% 29.76 in 10.0 mi NE 13.8 mph 26.5 mph N/A   Overcast
2:56 AM 34.0 °F 23.4 °F 21.0 °F 59% 29.71 in 9.0 mi NE 17.3 mph 29.9 mph 0.00 in   Overcast
3:56 AM 33.1 °F 20.9 °F 24.1 °F 70% 29.63 in 4.0 mi NNE 21.9 mph 32.2 mph 0.00 in Snow Light Snow
4:16 AM 32.0 °F 18.9 °F 25.0 °F 75% 29.59 in 2.0 mi NNE 24.2 mph 35.7 mph 0.00 in Snow Light Snow
4:23 AM 32.0 °F 19.2 °F 26.1 °F 79% 29.58 in 1.2 mi NNE 23.0 mph 35.7 mph 0.00 in Snow Light Snow
4:56 AM 30.9 °F 16.9 °F 26.1 °F 82% 29.56 in 1.0 mi North 26.5 mph 44.9 mph 0.00 in Snow Light Snow
5:00 AM 30.9 °F 18.1 °F 26.1 °F 82% 29.56 in 0.8 mi NNE 21.9 mph 44.9 mph 0.00 in Snow Light Snow
5:28 AM 30.0 °F 15.7 °F 28.0 °F 92% 29.53 in 0.5 mi NNE 26.5 mph 42.6 mph 0.01 in Fog , Snow Snow
5:43 AM 30.0 °F 14.7 °F 27.0 °F 88% 29.52 in 0.2 mi NNE 31.1 mph 44.9 mph 0.01 in Fog Light Freezing Fog
5:56 AM 30.0 °F 14.7 °F 27.0 °F 88% 29.52 in 0.2 mi NNE 31.1 mph 44.9 mph 0.02 in Fog Light Freezing Fog
6:56 AM 30.0 °F 14.0 °F 28.0 °F 92% 29.44 in 0.2 mi North 34.5 mph 48.3 mph 0.04 in Fog Light Freezing Fog
7:56 AM 30.0 °F 13.4 °F 28.0 °F 92% 29.42 in 0.2 mi North 38.0 mph 58.7 mph 0.04 in Fog , Snow Heavy Snow
8:56 AM 28.9 °F 13.5 °F 28.0 °F 96% 29.40 in 0.2 mi North 29.9 mph 59.8 mph 0.04 in Fog , Snow Heavy Snow
9:56 AM 28.0 °F 11.5 °F 26.1 °F 92% 29.39 in 0.2 mi North 33.4 mph 58.7 mph 0.05 in Fog , Snow Heavy Snow
10:56 AM 28.0 °F 11.3 °F 25.0 °F 88% 29.38 in 0.2 mi North 34.5 mph 51.8 mph 0.04 in Fog , Snow Heavy Snow
11:56 AM 27.0 °F 9.8 °F 24.1 °F 89% 29.37 in 0.5 mi North 34.5 mph 54.1 mph 0.03 in Fog , Snow Snow
12:03 PM 27.0 °F 10.5 °F 24.1 °F 89% 29.38 in 0.5 mi NNW 31.1 mph 51.8 mph 0.00 in Fog , Snow Snow
12:15 PM 27.0 °F 9.8 °F 23.0 °F 85% 29.37 in 0.8 mi NNW 34.5 mph 64.4 mph 0.00 in   Overcast
12:27 PM 28.0 °F 10.9 °F 21.9 °F 78% 29.39 in 1.2 mi North 36.8 mph 47.2 mph 0.00 in   Haze
12:46 PM 28.9 °F 14.8 °F 21.9 °F 75% 29.41 in 0.5 mi North 24.2 mph 51.8 mph 0.00 in   Haze
12:56 PM 28.9 °F 13.2 °F 19.9 °F 69% 29.41 in 0.5 mi North 31.1 mph 57.5 mph 0.00 in   Haze
1:16 PM 30.0 °F 15.4 °F 19.9 °F 66% 29.38 in 0.8 mi North 27.6 mph 58.7 mph N/A   Haze
1:56 PM 32.0 °F 17.4 °F 18.0 °F 56% 29.40 in 1.0 mi NNW 31.1 mph 48.3 mph N/A   Haze
2:38 PM 32.0 °F 18.1 °F 18.0 °F 56% 29.44 in 7.0 mi NNW 27.6 mph 47.2 mph 0.00 in Snow Light Snow
2:56 PM 32.0 °F 17.9 °F 17.1 °F 54% 29.45 in 7.0 mi NNW 28.8 mph 47.2 mph 0.00 in Snow Light Snow
3:56 PM 34.0 °F 22.7 °F 16.0 °F 48% 29.47 in 7.0 mi NNW 19.6 mph 46.0 mph 0.00 in Snow Light Snow
4:11 PM 33.1 °F 19.1 °F 14.0 °F 46% 29.49 in 2.5 mi NW 29.9 mph 41.4 mph 0.00 in Snow Light Snow
4:20 PM 33.1 °F 20.3 °F 14.0 °F 46% 29.49 in 1.5 mi NNW 24.2 mph 49.5 mph 0.00 in Snow Light Snow
4:29 PM 33.1 °F 20.1 °F 14.0 °F 46% 29.49 in 3.0 mi NNW 25.3 mph 47.2 mph 0.00 in Snow Light Snow
4:36 PM 33.1 °F 20.6 °F 14.0 °F 46% 29.50 in 2.0 mi NNW 23.0 mph 44.9 mph 0.00 in Snow Light Snow
4:56 PM 33.1 °F 19.6 °F 12.9 °F 43% 29.54 in 2.5 mi NNW 27.6 mph 46.0 mph 0.00 in Snow Light Snow
5:14 PM 34.0 °F 20.5 °F 12.0 °F 40% 29.54 in 4.0 mi NW 28.8 mph 46.0 mph 0.00 in Snow Light Snow
5:56 PM 34.0 °F 22.1 °F 9.0 °F 35% 29.60 in 10.0 mi NW 21.9 mph 36.8 mph N/A Rain Rain
6:56 PM 34.0 °F 23.0 °F 9.0 °F 35% 29.66 in 10.0 mi NW 18.4 mph 33.4 mph N/A Rain Light Rain
7:56 PM 32.0 °F 18.9 °F 7.0 °F 35% 29.73 in 10.0 mi NW 24.2 mph 40.3 mph N/A   Scattered Clouds
8:56 PM 30.9 °F 18.7 °F 6.1 °F 35% 29.78 in 10.0 mi NW 19.6 mph 35.7 mph N/A   Clear
9:56 PM 30.0 °F 17.9 °F 5.0 °F 35% 29.80 in 10.0 mi NW 18.4 mph 40.3 mph N/A   Partly Cloudy
10:56 PM 28.9 °F 14.5 °F 6.1 °F 38% 29.87 in 10.0 mi NW 25.3 mph 40.3 mph N/A   Clear
11:56 PM 28.0 °F 16.1 °F 3.0 °F 34% 29.93 in 10.0 mi NW 16.1 mph 38.0 mph N/A   Clear